Weather History for PASA - March, 2014

Change the Weather History Date:

Friday, March 28, 2014

  Actual Average Record
Temperature  
Mean Temperature 22 °F -  
Max Temperature 26 °F - - ()
Min Temperature 19 °F - - ()
Degree Days  
Heating Degree Days 42    
Moisture  
Dew Point 19 °F    
Average Humidity 86    
Maximum Humidity 100    
Minimum Humidity 80    
Precipitation  
Precipitation 0.00 in - - ()
Sea Level Pressure  
Sea Level Pressure 29.92 in    
Wind  
Wind Speed 19 mph (ESE)    
Max Wind Speed 28 mph    
Max Gust Speed 31 mph    
Visibility 9 miles    
Events      
T = Trace of Precipitation, MM = Missing Value Source: NWS Daily Summary

Daily Weather History Graph

Daily Weather History Graph

Search for Another Location

Airport or City:

Trip Planner

Search our weather history database for the weather conditions in past years. The results will help you decide how hot, cold, wet, or windy it might be!

Date:

Astronomy

Mar. 28, 2014 Rise Set
Actual Time 8:53 AM AKDT 10:01 PM AKDT
Civil Twilight 8:05 AM AKDT 10:50 PM AKDT
Nautical Twilight 7:05 AM AKDT 11:51 PM AKDT
Astronomical Twilight 5:51 AM AKDT 1:06 AM AKDT
Moon 8:12 AM AKDT (3/28) 7:44 PM AKDT (3/28)
Length of Visible Light 14h 44m
Length of Day
13h 07m
Waning Crescent, 5% of the Moon is Illuminated
Mar 28
Waning Crescent
Mar 30
New
Apr 7
First Quarter
Apr 14
Full
Apr 21
Last Quarter

Hourly Weather History & Observations

Time (AKDT) Temp. Windchill Dew Point Humidity Pressure Visibility Wind Dir Wind Speed Gust Speed Precip Events Conditions
12:16 AM 26.6 °F 12.4 °F 21.2 °F 80% 29.99 in 5.0 mi East 21.9 mph 29.9 mph N/A   Overcast
12:36 AM 26.6 °F 11.7 °F 21.2 °F 80% 29.98 in 9.0 mi ESE 24.2 mph 28.8 mph N/A   Overcast
12:56 AM 26.6 °F 13.4 °F 21.2 °F 80% 29.99 in 8.0 mi ESE 18.4 mph 27.6 mph N/A   Overcast
1:16 AM 26.6 °F 12.4 °F 21.2 °F 80% 29.98 in 10.0 mi ESE 21.9 mph 26.5 mph N/A   Overcast
1:36 AM 26.6 °F 12.4 °F 21.2 °F 80% 29.98 in 8.0 mi ESE 21.9 mph 28.8 mph N/A   Overcast
1:56 AM 26.6 °F 11.4 °F 21.2 °F 80% 29.98 in 10.0 mi East 25.3 mph - N/A   Overcast
2:16 AM 24.8 °F 9.6 °F 21.2 °F 86% 29.99 in 10.0 mi East 23.0 mph - N/A   Mostly Cloudy
2:36 AM 24.8 °F 8.4 °F 19.4 °F 80% 29.98 in 10.0 mi East 27.6 mph 31.1 mph N/A   Overcast
2:56 AM 24.8 °F 9.6 °F 21.2 °F 86% 29.98 in 10.0 mi East 23.0 mph 31.1 mph N/A   Overcast
3:16 AM 24.8 °F 9.3 °F 19.4 °F 80% 29.98 in 10.0 mi ESE 24.2 mph - N/A   Overcast
3:36 AM 24.8 °F 9.6 °F 21.2 °F 86% 29.99 in 10.0 mi ESE 23.0 mph 26.5 mph N/A   Overcast
3:56 AM 24.8 °F 11.1 °F 19.4 °F 80% 29.98 in 10.0 mi East 18.4 mph 24.2 mph N/A   Overcast
4:16 AM 23.0 °F 8.0 °F 21.2 °F 93% 29.98 in 10.0 mi ESE 20.7 mph - N/A   Mostly Cloudy
4:36 AM 24.8 °F 10.0 °F 19.4 °F 80% 29.97 in 10.0 mi ESE 21.9 mph - N/A   Partly Cloudy
4:56 AM 24.8 °F 10.7 °F 19.4 °F 80% 29.97 in 10.0 mi SE 19.6 mph - N/A   Mostly Cloudy
5:16 AM 24.8 °F 10.7 °F 21.2 °F 86% 29.98 in 10.0 mi ESE 19.6 mph - N/A   Overcast
5:36 AM 24.8 °F 11.1 °F 19.4 °F 80% 29.97 in 10.0 mi East 18.4 mph - N/A   Overcast
5:56 AM 24.8 °F 10.7 °F 21.2 °F 86% 29.96 in 10.0 mi East 19.6 mph - N/A   Mostly Cloudy
6:16 AM 24.8 °F 10.0 °F 19.4 °F 80% 29.96 in 10.0 mi East 21.9 mph - N/A   Mostly Cloudy
6:36 AM 24.8 °F 12.4 °F 19.4 °F 80% 29.96 in 10.0 mi East 15.0 mph - N/A   Overcast
6:56 AM 24.8 °F 10.0 °F 21.2 °F 86% 29.95 in 10.0 mi East 21.9 mph - N/A   Overcast
7:16 AM 24.8 °F 10.3 °F 19.4 °F 80% 29.95 in 10.0 mi East 20.7 mph - N/A   Overcast
7:36 AM 24.8 °F 10.7 °F 19.4 °F 80% 29.95 in 10.0 mi ESE 19.6 mph - N/A   Overcast
7:56 AM 24.8 °F 10.7 °F 19.4 °F 80% 29.95 in 10.0 mi East 19.6 mph - N/A   Overcast
8:16 AM 24.8 °F 10.3 °F 19.4 °F 80% 29.94 in 10.0 mi ESE 20.7 mph 25.3 mph N/A   Overcast
8:36 AM 24.8 °F 10.7 °F 21.2 °F 86% 29.94 in 10.0 mi ESE 19.6 mph - N/A   Overcast
8:56 AM 24.8 °F 9.6 °F 19.4 °F 80% 29.94 in 10.0 mi SE 23.0 mph - N/A   Overcast
9:16 AM 24.8 °F 10.7 °F 19.4 °F 80% 29.94 in 10.0 mi ESE 19.6 mph - N/A   Overcast
9:36 AM 24.8 °F 11.1 °F 19.4 °F 80% 29.94 in 10.0 mi SE 18.4 mph - N/A   Overcast
9:56 AM 24.8 °F 12.4 °F 19.4 °F 80% 29.94 in 10.0 mi ESE 15.0 mph - N/A   Overcast
10:16 AM 23.0 °F 10.1 °F 19.4 °F 86% 29.95 in 10.0 mi ESE 15.0 mph - N/A   Overcast
10:36 AM 23.0 °F 9.2 °F 19.4 °F 86% 29.94 in 10.0 mi ESE 17.3 mph - N/A   Overcast
10:56 AM 23.0 °F 8.0 °F 19.4 °F 86% 29.94 in 10.0 mi ESE 20.7 mph - N/A   Overcast
11:16 AM 23.0 °F 9.2 °F 19.4 °F 86% 29.94 in 10.0 mi ESE 17.3 mph - N/A   Overcast
11:36 AM 23.0 °F 8.7 °F 19.4 °F 86% 29.94 in 10.0 mi ESE 18.4 mph - N/A   Overcast
11:56 AM 23.0 °F 9.6 °F 17.6 °F 80% 29.94 in 9.0 mi ESE 16.1 mph - N/A   Overcast
12:16 PM 23.0 °F 8.3 °F 19.4 °F 86% 29.93 in 10.0 mi ESE 19.6 mph - N/A   Overcast
12:36 PM 23.0 °F 9.6 °F 19.4 °F 86% 29.93 in 10.0 mi ESE 16.1 mph - N/A   Overcast
12:56 PM 23.0 °F 9.6 °F 19.4 °F 86% 29.93 in 10.0 mi ESE 16.1 mph - N/A   Overcast
1:16 PM 23.0 °F 9.6 °F 19.4 °F 86% 29.93 in 6.0 mi ESE 16.1 mph - N/A   Overcast
1:36 PM 23.0 °F 10.1 °F 19.4 °F 86% 29.93 in 9.0 mi ESE 15.0 mph - N/A   Overcast
1:56 PM 23.0 °F 10.1 °F 17.6 °F 80% 29.93 in 6.0 mi SE 15.0 mph - N/A   Overcast
2:16 PM 23.0 °F 10.1 °F 19.4 °F 86% 29.92 in 3.0 mi SE 15.0 mph - N/A   Overcast
2:36 PM 23.0 °F 10.1 °F 17.6 °F 80% 29.92 in 10.0 mi ESE 15.0 mph - N/A   Overcast
2:56 PM 21.2 °F 7.3 °F 19.4 °F 93% 29.92 in 3.0 mi ESE 16.1 mph - N/A   Overcast
3:16 PM 21.2 °F 8.9 °F 19.4 °F 93% 29.91 in 4.0 mi ESE 12.7 mph - N/A   Overcast
3:36 PM 21.2 °F 8.9 °F 19.4 °F 93% 29.91 in 10.0 mi ESE 12.7 mph - N/A   Overcast
3:56 PM 23.0 °F 10.6 °F 19.4 °F 86% 29.90 in 6.0 mi ESE 13.8 mph - N/A   Overcast
4:16 PM 21.2 °F 8.3 °F 17.6 °F 86% 29.90 in 5.0 mi ESE 13.8 mph - N/A   Overcast
4:36 PM 21.2 °F 7.3 °F 19.4 °F 93% 29.90 in 8.0 mi ESE 16.1 mph - N/A   Overcast
4:56 PM 21.2 °F 8.9 °F 19.4 °F 93% 29.89 in 10.0 mi East 12.7 mph - N/A   Overcast
5:16 PM 21.2 °F 9.5 °F 19.4 °F 93% 29.89 in 6.0 mi East 11.5 mph - N/A   Overcast
5:36 PM 21.2 °F 8.3 °F 19.4 °F 93% 29.88 in 9.0 mi East 13.8 mph - N/A   Overcast
5:56 PM 21.2 °F 8.3 °F 17.6 °F 86% 29.87 in 10.0 mi ESE 13.8 mph - N/A   Overcast
6:16 PM 21.2 °F 7.8 °F 19.4 °F 93% 29.87 in 10.0 mi ESE 15.0 mph - N/A   Overcast
6:36 PM 21.2 °F 8.3 °F 17.6 °F 86% 29.86 in 10.0 mi East 13.8 mph - N/A   Overcast
6:56 PM 21.2 °F 8.3 °F 19.4 °F 93% 29.86 in 10.0 mi East 13.8 mph - N/A   Overcast
7:16 PM 21.2 °F 8.3 °F 19.4 °F 93% 29.86 in 10.0 mi East 13.8 mph - N/A   Overcast
7:36 PM 21.2 °F 8.9 °F 17.6 °F 86% 29.86 in 10.0 mi East 12.7 mph - N/A   Overcast
7:56 PM 21.2 °F 8.9 °F 17.6 °F 86% 29.85 in 10.0 mi East 12.7 mph - N/A   Overcast
8:16 PM 21.2 °F 8.9 °F 17.6 °F 86% 29.85 in 10.0 mi East 12.7 mph - N/A   Overcast
8:36 PM 21.2 °F 10.1 °F 17.6 °F 86% 29.86 in 10.0 mi ESE 10.4 mph - N/A   Overcast
8:56 PM 19.4 °F 7.2 °F 17.6 °F 93% 29.85 in 10.0 mi ESE 11.5 mph - N/A   Overcast
9:16 PM 19.4 °F 8.6 °F 17.6 °F 93% 29.85 in 10.0 mi East 9.2 mph - N/A   Overcast
9:36 PM 19.4 °F 7.9 °F 17.6 °F 93% 29.85 in 10.0 mi ESE 10.4 mph - N/A   Overcast
9:56 PM 19.4 °F 9.5 °F 17.6 °F 93% 29.85 in 10.0 mi East 8.1 mph - N/A   Overcast
10:16 PM 19.4 °F 8.6 °F 15.8 °F 86% 29.85 in 10.0 mi ENE 9.2 mph - N/A   Overcast
10:36 PM 19.4 °F 8.6 °F 17.6 °F 93% 29.84 in 10.0 mi ESE 9.2 mph - N/A   Overcast
10:56 PM 19.4 °F 7.9 °F 15.8 °F 86% 29.84 in 10.0 mi ENE 10.4 mph - N/A   Overcast
11:16 PM 19.4 °F 10.4 °F 19.4 °F 100% 29.84 in 10.0 mi ESE 6.9 mph - N/A   Overcast
11:36 PM 19.4 °F 9.5 °F 15.8 °F 86% 29.84 in 10.0 mi East 8.1 mph - N/A   Overcast
11:56 PM 19.4 °F 8.6 °F 17.6 °F 93% 29.84 in 10.0 mi ENE 9.2 mph - N/A   Overcast